Theta_e
330 330 332 332 332 332 332 332 333 333 334 335 336 334 334 334 334 334 334 334 336 335 335 333 332 331 330 329 327 326 324 323 322 321 321 324 326 328 329 329 329 329 330 330 330 330 329 329 329 327 326 325 325 324 323 323 322 322 321 320 320 320 320 320 319 319 318 318 318 319 318 319 317 320 318 318 321 320 320 319 317 318 318 318 319
335 332 332 332 333 334 334 334 334 334 335 335 335 334 332 333 333 333 335 334 335 336 334 332 330 329 328 326 325 324 323 321 320 320 320 321 324 326 327 327 327 328 328 329 329 328 327 327 327 326 326 325 324 323 323 322 321 321 320 319 319 319 318 319 320 318 318 318 319 318 318 319 318 318 319 319 319 318 317 317 318 319 319 318 318
335 333 332 333 334 335 335 335 334 335 335 334 334 335 334 333 331 333 332 334 335 336 333 330 328 326 326 324 323 323 322 321 320 319 318 319 320 323 323 325 325 325 326 326 327 327 327 327 326 325 324 324 323 323 323 322 321 320 320 319 318 318 319 318 320 318 317 318 318 317 318 318 318 318 319 317 316 317 318 317 317 318 317 317 317
334 333 333 333 334 335 336 335 334 334 334 333 335 336 335 334 335 330 329 333 334 334 333 329 326 323 323 322 322 321 320 320 319 319 319 318 318 320 322 322 323 324 325 325 325 325 325 326 325 324 323 323 322 323 323 321 320 320 320 319 318 319 319 318 319 318 317 318 318 317 317 318 318 317 318 317 318 317 316 316 317 317 317 317 317
334 334 336 333 334 333 333 334 333 334 335 335 336 334 332 332 329 327 328 330 332 333 331 327 323 322 322 321 321 320 320 319 319 319 318 317 317 317 319 321 322 322 323 323 323 323 323 323 324 324 323 323 322 321 321 321 321 320 319 319 318 318 318 318 318 318 317 318 318 317 317 317 317 317 317 317 317 317 316 316 316 317 317 317 317
335 334 335 333 333 333 333 334 334 335 336 336 334 330 331 329 327 328 330 329 330 330 326 323 322 322 321 321 321 320 319 319 318 318 317 316 316 316 316 316 317 319 321 322 321 321 320 320 321 322 322 322 322 322 321 321 320 319 319 319 319 318 318 318 318 317 318 317 317 317 317 317 317 317 317 317 315 315 316 316 316 316 316 316 316
335 334 334 333 332 332 332 334 333 334 334 334 333 331 330 327 325 323 323 325 327 328 324 322 321 320 321 321 320 319 319 318 318 316 315 314 315 314 314 315 315 316 317 317 322 320 319 318 318 318 319 319 319 319 320 321 320 319 318 318 318 318 318 318 318 318 317 317 316 316 317 316 317 317 318 316 315 315 315 315 316 316 315 316 315
335 334 333 332 332 332 331 332 332 333 332 332 332 330 328 326 325 324 322 322 324 323 323 320 320 319 319 319 319 318 316 316 315 313 312 313 313 313 313 314 316 320 320 316 318 321 318 318 316 316 317 317 317 318 318 318 319 319 318 317 317 317 317 317 317 317 317 317 316 316 316 316 316 316 317 316 315 315 315 315 315 315 315 315 315
334 334 333 332 332 331 330 331 332 331 331 330 330 329 326 324 324 326 323 321 321 320 318 319 318 318 318 317 317 316 314 314 312 311 312 311 310 311 314 316 322 321 314 314 314 315 318 317 315 315 315 315 315 315 316 317 317 318 318 317 317 316 316 316 317 317 316 316 316 316 315 315 315 316 316 316 314 315 315 315 315 315 315 316 316
334 334 333 333 332 331 331 332 333 331 331 329 330 328 326 324 321 321 321 321 319 318 316 316 316 315 314 313 312 312 311 311 314 314 310 309 310 311 312 313 312 311 312 311 310 309 309 314 316 313 313 312 313 314 314 315 315 316 317 317 316 316 316 316 316 316 316 316 317 315 315 314 314 315 316 315 315 314 315 315 315 314 315 315 315
334 334 333 336 333 332 331 333 333 330 330 330 329 326 324 323 320 318 319 318 318 317 315 314 313 312 310 311 311 309 309 312 313 308 308 308 309 310 307 310 310 309 310 308 307 307 307 306 306 308 313 312 311 312 313 313 313 314 315 317 317 315 315 316 316 316 316 316 316 315 314 314 314 314 315 315 314 313 314 314 314 315 315 315 314
334 333 334 335 333 331 331 333 333 330 329 329 327 325 322 320 319 317 315 315 314 314 314 312 310 310 312 309 310 310 309 311 306 306 309 308 310 309 308 306 308 307 307 307 307 307 307 309 313 307 308 313 313 311 311 312 312 313 314 315 316 315 315 315 316 316 316 316 316 315 314 314 313 314 315 314 313 313 314 314 315 315 314 314 314
334 333 333 336 333 331 331 332 332 330 330 330 328 325 323 321 319 318 314 312 312 313 312 311 308 306 306 307 308 311 313 309 306 306 306 308 308 307 309 308 305 306 305 307 305 305 307 306 307 307 308 306 308 314 314 312 314 312 312 315 316 315 315 315 316 316 316 316 316 315 314 314 313 314 314 313 313 313 314 313 314 313 313 314 313
335 334 334 334 331 330 330 330 331 329 330 329 327 328 323 320 318 316 317 314 311 311 310 310 307 305 303 303 307 307 311 306 306 305 306 306 306 306 307 304 304 305 306 305 305 305 305 307 308 308 307 307 307 308 310 312 313 313 311 314 314 314 315 316 315 315 316 316 316 314 314 313 313 313 314 313 313 313 313 313 314 312 313 313 312
335 335 333 332 331 330 330 329 329 330 329 327 326 324 321 319 318 315 314 316 314 313 311 313 308 307 306 304 300 300 305 305 304 305 306 306 306 305 306 303 303 304 306 306 305 304 304 306 306 306 306 306 306 307 308 311 317 314 312 314 312 314 314 314 314 315 315 316 315 314 314 313 313 312 313 312 312 312 312 313 313 312 312 312 311
335 335 333 332 331 330 329 329 329 330 329 327 324 322 321 320 319 317 315 311 311 311 315 313 308 307 304 305 301 301 297 300 301 303 303 304 306 306 306 303 303 304 304 304 304 305 305 305 306 306 306 307 307 307 307 308 315 314 315 313 313 313 312 312 313 313 315 315 315 314 313 313 313 312 312 312 312 311 311 312 312 311 311 311 310
334 334 333 331 330 329 329 328 328 329 329 327 324 322 321 320 319 317 316 313 310 311 313 315 310 315 309 302 300 299 300 300 300 304 302 301 301 304 308 303 303 304 305 302 302 302 303 304 306 306 307 307 307 306 307 306 307 314 312 315 313 312 312 311 311 312 313 314 314 314 313 313 312 312 312 312 312 311 311 312 312 311 310 310 310
333 333 333 331 329 329 329 328 328 328 328 327 325 323 321 320 319 318 317 316 313 311 310 316 313 317 310 310 308 305 301 301 301 298 303 304 305 303 305 302 302 306 303 301 301 301 310 307 306 307 307 308 307 305 304 305 312 311 313 314 312 312 312 313 312 311 313 313 314 314 314 313 312 312 313 313 312 311 311 311 311 311 311 310 310
331 332 331 331 328 328 328 328 328 327 328 326 324 323 321 321 320 318 318 318 315 311 311 312 313 313 315 313 314 309 304 301 299 297 297 303 300 300 300 300 301 302 300 301 303 303 304 309 306 303 304 305 304 304 304 305 308 312 313 311 311 311 311 311 313 314 313 313 314 313 314 313 313 313 313 312 311 311 311 311 311 311 311 310 310
330 330 330 330 328 327 327 327 327 326 327 325 325 324 323 322 321 320 319 318 316 314 312 314 310 310 314 312 309 305 305 303 302 302 298 296 297 298 298 301 301 302 302 303 303 304 305 306 307 304 304 303 303 303 304 306 306 307 313 310 311 310 310 311 311 311 314 314 313 313 313 313 313 311 311 310 310 310 310 310 310 310 310 310 310
329 328 328 328 329 326 325 325 325 325 328 324 323 322 323 322 321 318 317 317 316 316 314 314 311 310 310 306 305 304 303 304 303 301 301 296 294 296 299 299 301 302 303 302 303 304 307 306 311 306 308 303 302 303 305 307 307 306 312 310 310 310 310 310 310 311 311 314 313 313 313 313 312 312 312 310 310 310 310 310 310 309 309 309 309
325 326 326 327 327 326 324 324 324 324 325 322 320 320 320 321 321 319 318 317 316 316 315 315 313 312 313 309 306 304 304 303 302 299 298 299 297 295 297 298 298 301 303 304 306 306 304 303 301 300 301 302 303 304 306 309 308 307 310 309 310 310 309 310 310 310 310 311 313 311 311 311 311 312 311 310 310 309 309 309 309 309 309 309 309
323 323 324 324 324 325 323 322 322 325 322 320 319 319 318 319 320 319 318 317 315 316 316 315 314 312 311 310 310 306 305 303 300 301 300 298 297 297 296 297 296 297 302 299 304 299 300 300 301 301 302 303 304 304 306 309 307 305 305 307 308 309 309 309 310 310 309 309 311 311 310 310 310 311 310 309 309 309 309 309 309 309 309 310 309
321 321 321 321 323 322 322 320 321 320 318 318 318 317 315 315 316 318 317 317 316 316 314 312 312 310 308 309 310 309 307 307 302 303 301 300 301 297 296 298 298 299 300 299 297 298 298 299 299 300 301 302 304 306 306 306 307 305 304 305 306 308 308 309 310 310 309 308 309 311 311 310 310 309 308 308 308 309 310 310 309 309 309 308 309
320 320 319 318 320 319 318 318 317 317 316 315 314 313 313 313 314 315 315 314 314 314 312 312 311 310 309 306 308 307 308 306 304 303 302 301 300 296 297 297 298 299 298 297 298 299 298 298 299 300 301 302 303 303 305 305 306 304 304 302 304 306 307 307 309 310 309 307 308 309 310 312 311 311 310 309 309 310 310 310 309 309 308 309 309
320 321 319 317 319 319 319 317 316 315 314 313 312 312 311 311 312 312 311 312 311 312 312 311 309 309 307 305 305 306 307 304 305 303 301 300 298 299 298 297 298 297 296 296 295 300 299 299 299 301 301 301 302 303 304 303 305 304 303 302 302 304 306 306 307 308 308 308 307 308 308 309 310 311 311 311 311 311 310 310 309 309 309 309 308
321 321 318 317 316 316 316 315 313 313 313 313 312 311 311 311 310 309 308 306 308 308 307 306 306 304 304 306 305 303 303 303 303 304 303 303 301 299 299 297 296 296 297 294 296 296 297 297 299 300 302 304 302 304 304 303 303 303 302 300 300 302 305 305 305 307 307 307 308 307 307 307 308 308 309 309 311 311 310 309 309 309 309 308 308
320 319 316 316 314 314 315 313 312 312 312 312 311 310 309 308 307 307 306 307 305 305 304 304 304 303 303 302 303 301 301 301 302 303 303 303 302 301 301 300 297 293 295 295 296 297 297 298 299 300 300 301 301 302 303 302 303 302 301 300 300 301 304 304 304 306 306 306 307 306 307 307 307 308 308 309 310 310 309 309 309 309 309 308 309
319 318 315 314 313 313 313 311 311 311 311 311 310 309 308 309 306 305 305 305 305 304 303 303 302 302 301 302 302 301 300 302 301 301 301 301 301 302 302 301 300 296 292 292 295 296 298 297 298 298 301 300 301 301 299 300 305 301 300 300 300 301 304 304 303 304 304 305 305 305 306 307 307 307 308 309 310 310 309 309 309 308 308 308 308
318 317 314 312 312 315 311 310 310 310 310 310 309 308 308 306 305 305 304 304 304 303 304 302 301 302 302 302 302 301 301 300 300 301 300 301 301 301 301 302 302 298 295 293 294 295 299 297 298 297 299 299 299 300 299 298 304 303 299 299 299 302 304 303 302 302 302 303 302 303 304 305 305 306 308 308 309 309 308 308 308 307 307 307 307
317 315 312 311 311 311 310 309 309 309 309 308 308 307 307 305 305 304 303 303 303 302 302 302 302 302 301 300 300 300 299 299 299 300 300 300 300 301 301 300 301 301 297 296 295 298 299 299 299 299 299 298 298 299 298 298 301 302 300 300 298 302 302 301 302 302 302 302 302 303 304 304 304 305 306 307 308 308 308 308 306 305 306 306 305
316 314 312 310 310 309 309 309 308 308 308 307 307 306 305 305 304 303 303 303 302 302 301 302 302 301 300 299 299 299 299 299 299 298 299 299 299 299 300 300 299 298 299 297 297 297 299 300 299 299 299 301 298 297 298 297 298 300 300 299 300 301 300 301 300 302 302 301 301 301 302 302 302 304 305 306 306 306 306 305 304 304 304 304 303
315 312 311 310 309 309 308 309 308 307 307 306 306 305 305 303 303 303 302 302 302 301 302 301 300 300 300 299 298 298 298 299 298 298 298 298 298 299 299 299 298 298 299 297 297 296 297 298 299 299 300 298 296 295 296 298 299 299 299 299 300 300 300 300 300 300 300 300 300 300 300 300 301 303 304 304 303 303 303 301 301 302 303 303 300
314 312 311 310 309 308 308 308 307 307 307 306 305 305 304 303 302 302 302 302 301 301 301 300 299 299 299 298 297 298 298 298 298 298 297 298 297 298 298 298 298 298 298 298 297 296 296 298 298 298 299 297 296 295 297 298 299 300 298 299 299 298 298 300 300 300 299 300 300 300 300 300 299 300 300 300 299 299 299 299 299 298 301 301 298
314 312 310 309 308 308 307 307 306 306 306 305 305 304 304 303 302 302 302 301 301 300 300 299 298 299 298 299 298 298 299 298 297 297 298 298 298 298 298 299 298 298 298 299 297 295 295 295 297 296 299 298 297 296 296 298 300 297 296 298 298 299 300 300 300 300 299 299 299 300 299 299 299 299 298 299 298 298 298 299 298 298 298 299 298
312 312 310 309 308 307 307 306 306 306 305 305 304 304 304 303 302 302 301 301 301 301 300 299 298 299 298 298 297 298 299 297 297 297 298 298 299 299 298 298 299 298 298 298 298 296 296 295 295 296 297 297 297 294 296 299 297 297 297 298 298 298 298 299 299 299 300 300 300 299 300 300 299 298 298 298 298 298 298 298 298 298 298 299 299
312 311 310 308 307 307 307 306 305 305 305 304 304 303 303 303 302 302 301 300 300 300 300 299 301 299 299 298 297 298 298 297 297 297 297 297 297 298 297 298 298 298 298 298 297 297 296 295 295 296 296 295 296 295 297 297 298 297 298 298 298 298 299 299 299 299 300 299 299 299 299 299 298 298 298 298 298 298 298 298 298 299 299 299 299
312 311 310 308 308 306 306 306 305 305 304 304 304 303 303 302 302 302 301 300 300 299 299 300 300 299 299 298 298 298 298 297 297 297 297 297 297 297 297 296 295 295 296 296 297 296 296 295 296 295 296 297 297 299 296 297 297 297 297 298 299 299 299 299 300 300 300 300 300 300 300 299 299 299 299 298 298 297 298 298 299 299 300 299 299
312 311 310 308 308 307 306 306 305 305 304 303 303 302 302 301 301 301 300 300 299 299 299 299 299 299 298 298 298 298 298 298 297 297 297 297 297 296 296 295 294 296 295 295 296 295 295 294 294 294 295 295 295 298 297 294 295 295 296 296 297 299 299 297 298 300 300 300 300 299 299 299 299 300 298 297 297 299 299 299 299 300 300 299 298
312 311 309 308 308 307 306 305 305 305 304 303 302 302 301 301 301 300 300 300 299 299 299 299 299 299 298 299 298 298 298 298 298 297 297 296 295 295 295 294 294 295 294 295 295 295 295 294 294 294 294 295 297 295 294 295 298 296 295 295 295 296 297 298 297 297 300 300 299 299 299 300 299 300 298 298 299 299 299 299 300 300 300 299 298
313 312 310 309 307 306 305 305 304 304 303 303 302 301 301 300 301 300 300 300 299 299 298 298 298 298 298 299 298 298 301 301 301 300 299 298 296 295 295 294 294 294 293 294 294 294 293 293 292 292 293 295 293 293 296 295 296 295 296 295 295 296 295 296 298 299 299 298 298 299 300 300 299 300 300 300 301 301 300 299 300 300 299 298 297
313 312 310 309 307 306 304 304 304 303 303 303 304 303 302 301 300 300 300 300 299 299 299 298 297 298 298 298 301 305 305 304 302 300 299 300 301 299 295 294 294 293 293 293 292 293 293 292 292 292 292 292 293 294 295 295 294 295 295 295 294 296 295 296 298 300 300 298 297 297 299 301 298 299 300 299 301 302 301 301 300 299 299 297 297
312 311 309 307 307 306 305 304 303 303 303 303 301 297 297 300 301 300 300 299 300 299 299 298 297 297 297 299 303 307 307 306 302 298 297 297 297 297 297 296 296 294 292 292 291 292 293 292 291 291 292 292 293 292 293 295 294 295 295 295 294 295 294 292 292 297 299 298 297 296 298 302 299 298 299 300 301 301 300 301 298 298 297 297 297
311 310 308 308 307 306 305 304 303 303 303 302 297 296 296 297 300 301 300 299 299 299 299 298 298 298 298 299 303 306 304 303 301 300 299 297 295 295 294 294 293 294 294 293 293 291 292 291 291 292 292 293 294 292 293 293 296 295 295 294 294 294 294 293 293 293 298 299 296 295 296 301 299 299 299 300 301 301 300 298 297 297 297 297 297
311 309 308 307 306 306 305 303 303 303 303 299 295 296 295 296 297 300 300 300 300 299 299 299 299 299 300 300 302 302 303 306 304 298 298 298 296 295 295 295 294 292 291 292 294 296 294 293 293 291 292 293 293 295 296 297 296 296 296 295 295 294 293 293 294 294 298 299 296 295 294 298 298 297 297 301 301 301 300 298 297 296 297 297 296
310 309 308 307 306 305 305 304 303 303 302 299 295 295 295 295 295 297 300 300 300 299 299 299 299 299 300 300 300 299 299 303 299 295 295 295 296 296 296 295 295 298 292 292 290 292 295 296 295 295 294 293 297 296 299 298 296 296 296 295 296 295 295 296 297 296 298 297 296 294 294 298 298 297 297 300 301 300 301 299 296 296 296 296 296
310 309 307 306 305 305 305 304 303 302 302 297 295 295 294 294 294 297 300 301 300 299 299 299 299 299 300 301 300 299 297 297 296 293 293 293 294 293 293 292 292 293 294 295 296 295 296 295 295 297 296 294 297 298 297 298 298 298 297 296 296 295 295 295 296 296 297 297 296 295 294 297 298 296 298 299 299 299 301 298 297 296 296 296 296
310 310 308 307 305 305 304 304 303 302 302 295 294 294 294 294 294 301 300 300 299 299 299 298 298 299 300 300 300 298 296 295 297 292 293 293 292 291 291 291 293 296 296 297 294 294 297 297 296 296 296 295 294 297 297 297 297 297 296 297 295 295 294 295 296 297 296 298 297 296 294 296 298 295 297 299 299 298 300 301 298 297 296 296 296
309 308 307 306 305 305 304 303 302 302 301 296 294 294 294 293 296 300 300 300 299 299 299 298 299 299 299 299 298 297 294 294 295 290 291 292 291 291 291 291 294 296 297 296 293 292 292 292 291 291 291 291 291 291 291 292 294 295 294 294 295 293 295 294 294 294 298 298 297 296 296 294 298 295 295 298 298 297 299 300 301 297 296 296 295
309 308 307 306 305 305 303 302 303 301 301 297 294 294 294 293 298 300 300 299 299 299 299 298 298 298 298 301 299 295 294 294 292 289 290 293 291 291 292 293 294 295 296 294 295 295 293 292 291 291 291 291 291 291 292 292 291 294 296 295 298 294 295 294 294 295 295 296 297 297 296 296 298 296 295 296 297 299 300 300 300 300 297 296 296
309 306 305 305 304 304 303 303 305 302 300 298 294 293 293 293 298 300 300 299 298 298 298 298 297 296 296 301 302 297 295 294 291 290 290 293 291 292 293 294 295 295 295 293 294 294 294 294 294 295 295 293 297 296 297 294 293 295 297 297 296 296 296 295 295 294 294 297 297 297 295 297 297 297 294 294 293 297 299 299 299 300 300 299 299
Wind_Speed
4 4 3 4 4 4 3 3 2 2 1 2 2 1 1 0 0 1 3 5 6 8 7 7 6 6 7 7 6 5 5 6 5 6 5 5 6 10 15 14 14 14 15 15 15 15 15 15 15 15 14 14 14 15 15 15 15 15 15 15 16 16 15 16 16 17 15 16 16 17 16 16 16 18 17 17 19 19 18 19 18 18 18 19 19
5 4 5 4 4 3 3 3 2 2 3 3 1 1 1 1 1 2 4 5 7 8 7 7 6 6 5 7 6 5 5 5 6 6 5 5 5 7 14 14 14 14 14 14 15 15 15 15 14 14 14 14 14 14 15 14 14 15 15 15 15 16 14 14 16 16 15 16 17 15 15 16 17 17 17 18 19 18 17 17 17 17 18 18 18
4 4 4 4 4 3 3 3 2 3 3 2 2 2 2 2 2 3 5 6 8 8 7 7 6 5 6 6 5 5 5 4 6 5 5 5 4 4 9 15 14 14 13 14 14 14 14 14 14 13 13 13 14 14 14 15 14 14 14 14 14 14 14 13 16 16 15 16 16 15 16 16 16 17 17 18 17 17 18 18 17 17 18 18 18
5 5 5 5 4 4 4 4 3 2 2 2 3 2 2 2 3 4 6 6 8 7 6 7 6 6 6 6 5 5 5 5 6 5 4 4 4 5 5 7 14 14 14 13 13 13 13 13 13 13 14 13 14 14 14 14 14 14 14 13 14 14 14 13 15 16 15 15 15 14 16 16 15 16 16 17 17 18 17 17 17 17 18 19 19
5 6 6 5 5 5 3 3 2 2 2 2 3 2 2 4 5 6 6 6 8 8 6 5 6 5 5 5 5 6 4 5 5 5 4 4 4 4 5 5 5 11 14 13 14 13 12 11 11 12 13 13 14 14 14 13 13 13 13 13 13 14 13 14 14 15 15 15 15 15 15 15 16 17 17 18 19 19 19 18 18 19 18 19 19
5 5 5 5 5 5 5 3 2 3 3 3 2 2 4 6 6 6 5 6 8 8 7 6 5 5 5 5 5 5 4 5 5 4 4 4 4 5 5 4 5 5 6 12 13 12 12 12 11 11 12 13 13 13 13 13 12 13 13 12 13 13 13 13 13 14 14 14 14 15 15 15 15 16 17 18 17 17 19 19 18 18 18 19 19
5 5 5 5 5 5 4 4 4 4 4 3 4 3 5 6 6 7 6 6 7 7 6 6 6 6 5 4 5 5 4 5 4 4 4 4 4 5 4 4 5 5 5 5 7 11 10 10 11 11 11 11 12 12 12 12 12 12 12 12 12 12 12 12 12 13 13 13 14 14 14 15 15 15 16 16 17 18 18 17 18 18 18 19 20
5 5 5 5 5 5 4 4 5 4 3 3 3 5 5 6 4 8 8 6 8 7 5 6 6 6 4 4 4 4 5 4 4 4 3 4 4 4 4 5 5 5 4 4 3 4 8 9 10 10 11 11 11 11 12 11 11 11 12 12 12 11 11 11 11 12 13 12 12 14 15 15 15 15 15 16 17 17 17 18 18 18 19 20 20
5 5 5 5 5 5 4 5 4 4 4 3 4 5 6 6 5 3 6 7 8 10 6 5 6 5 4 5 4 5 5 4 4 4 3 5 4 4 4 5 4 5 3 3 3 3 4 9 9 9 10 10 10 11 12 12 11 11 11 11 12 11 11 11 11 12 12 12 11 13 14 14 14 15 15 14 15 16 17 17 18 19 20 20 20
5 5 5 4 4 5 5 5 4 4 4 4 4 4 5 7 6 5 4 8 8 9 8 6 5 5 5 5 4 4 4 4 3 3 4 5 4 4 4 4 4 3 3 3 2 3 3 4 8 8 9 9 10 11 11 12 12 11 11 11 12 12 12 12 11 11 12 12 12 12 11 12 13 14 13 13 16 16 15 16 18 19 20 20 20
6 6 5 5 5 5 5 5 5 4 5 5 5 5 5 5 8 6 6 4 6 7 8 7 6 5 6 4 4 4 3 3 3 4 4 4 4 3 3 4 3 2 2 2 2 3 3 3 3 3 4 9 9 10 11 11 12 12 11 11 12 12 12 12 12 11 11 11 11 12 12 11 12 12 13 14 15 16 15 17 18 20 20 20 20
6 6 6 6 5 5 6 6 6 5 6 6 6 6 7 8 7 10 9 7 5 7 8 9 7 7 6 5 4 3 3 2 3 3 3 3 3 3 4 2 3 2 2 1 1 2 3 3 3 3 2 3 5 7 9 10 11 12 12 11 11 12 12 12 12 12 11 11 11 12 11 11 12 12 13 13 14 15 16 17 18 19 20 20 20
6 6 6 7 5 5 6 6 6 5 6 6 7 7 6 7 7 6 10 9 5 4 6 8 10 6 6 5 4 3 2 2 2 2 3 3 3 4 3 3 3 3 1 1 1 1 2 3 2 1 2 2 3 5 5 6 8 11 11 11 11 12 12 12 12 12 11 11 11 11 10 11 11 12 13 14 14 14 16 16 19 19 19 20 20
6 6 6 6 6 5 6 6 6 5 5 5 6 6 7 7 8 6 2 8 7 7 8 9 3 7 8 4 2 3 2 3 2 2 2 2 3 4 4 4 4 3 1 1 1 1 1 1 1 1 2 2 3 3 3 4 4 9 11 11 11 11 12 11 12 12 11 10 11 10 10 11 11 12 12 13 14 14 15 16 18 17 18 19 19
7 7 6 6 6 6 6 6 6 6 6 6 6 7 8 9 9 9 6 3 4 5 7 2 6 5 4 6 3 2 1 1 0 1 1 2 2 4 4 4 4 3 2 1 2 2 2 1 2 2 3 3 2 3 2 3 5 9 11 10 11 11 11 10 10 11 11 10 10 10 10 10 11 12 12 13 13 14 15 15 15 16 17 17 18
7 7 6 6 7 6 5 6 6 6 7 7 7 7 7 7 6 7 10 8 5 6 4 3 5 11 5 2 4 4 2 5 4 1 0 3 3 3 3 4 3 3 1 3 3 2 2 2 2 2 3 3 3 3 2 2 5 7 10 10 10 10 10 10 10 10 11 11 10 10 9 11 12 12 12 12 13 13 13 13 14 15 16 17 18
7 7 6 7 6 6 6 6 6 6 6 7 8 9 9 8 8 8 9 10 7 5 5 2 7 1 7 5 3 1 5 4 4 1 1 3 2 3 3 4 4 4 3 4 2 2 2 3 3 2 3 3 3 2 3 4 4 4 5 7 10 10 10 9 9 9 10 10 10 10 10 11 12 12 12 12 12 12 12 14 14 14 16 17 18
6 7 6 6 6 6 6 6 6 6 6 6 6 6 7 8 9 9 8 6 11 7 6 4 4 1 2 2 5 5 6 3 4 3 2 1 1 1 3 3 3 4 3 3 3 2 1 2 2 2 1 1 3 3 4 4 4 3 4 5 9 10 10 10 10 9 9 10 10 10 10 11 12 13 13 14 13 12 12 14 14 15 17 18 18
6 6 6 6 6 6 6 6 6 6 6 6 7 8 8 8 6 6 8 6 6 9 9 7 2 3 1 3 1 1 9 8 4 4 3 1 1 2 2 1 3 4 4 3 2 2 2 1 2 1 2 3 4 4 4 4 5 6 9 8 8 8 9 10 11 11 10 10 10 10 11 12 13 13 14 15 14 13 13 14 15 16 18 19 20
6 6 6 6 6 6 6 6 6 6 7 7 7 6 6 5 7 6 5 7 9 9 8 7 9 6 3 1 3 4 4 4 7 7 5 5 3 1 0 1 3 4 3 1 1 2 1 2 1 2 4 5 4 4 3 4 4 4 4 8 7 7 9 10 10 11 11 10 10 10 11 12 13 14 15 15 14 13 14 15 16 17 19 20 20
5 6 6 6 7 7 7 6 6 6 5 5 5 6 8 8 7 6 7 6 6 5 8 8 6 6 6 1 4 3 3 4 5 5 4 4 1 4 3 1 1 3 1 1 1 2 1 1 1 3 5 4 4 4 4 4 4 4 4 7 7 8 9 10 10 9 10 11 10 10 11 12 13 16 16 16 15 14 15 15 17 18 20 20 21
5 5 6 6 7 6 7 7 7 6 5 6 6 6 6 7 8 8 7 7 5 6 8 7 7 6 7 7 5 3 3 3 2 4 4 3 6 7 5 6 5 2 3 1 1 1 0 2 4 5 5 4 3 3 3 3 3 3 4 8 8 8 9 10 8 9 10 10 11 10 11 12 14 16 17 16 16 15 15 16 17 19 20 21 21
5 5 6 6 6 6 6 6 5 5 6 6 6 7 6 6 6 6 7 8 7 6 5 5 6 6 6 7 8 8 8 6 7 5 5 3 4 3 3 4 4 4 3 3 1 2 4 5 5 5 4 4 3 3 3 3 3 5 8 8 9 9 9 9 8 8 9 10 10 11 11 11 13 16 16 16 16 15 15 16 18 20 21 21 22
5 5 5 6 6 5 5 5 5 5 6 5 5 5 5 5 5 6 7 7 6 6 6 7 7 6 6 6 6 6 5 5 7 7 7 6 6 6 6 3 3 2 0 2 4 5 5 5 3 3 4 4 3 3 3 3 4 8 5 8 9 9 10 10 8 7 7 8 10 11 11 11 12 14 15 15 16 16 16 17 19 20 21 21 22
6 6 6 7 6 6 6 6 5 5 5 5 4 5 6 5 6 6 6 8 8 8 7 8 9 8 8 6 5 5 7 4 6 6 4 5 7 5 1 1 4 3 1 1 3 1 3 4 3 3 3 4 3 3 2 3 3 5 5 4 8 9 10 10 9 7 7 6 8 10 11 11 12 12 14 15 16 16 16 17 16 16 18 19 20
8 8 7 6 5 5 6 5 5 6 6 6 6 5 6 6 6 6 7 6 5 7 7 7 6 5 5 6 6 6 5 4 6 6 7 7 5 7 6 3 3 4 1 2 1 3 2 4 3 3 3 3 2 2 3 3 2 5 6 4 5 8 9 10 10 9 9 8 8 9 10 10 11 12 13 13 14 15 14 14 15 17 17 18 19
8 6 7 6 6 5 5 6 6 6 6 6 5 6 5 5 5 5 4 5 5 6 6 7 7 7 7 6 6 4 5 5 6 7 7 8 8 8 9 7 3 3 2 2 1 1 4 2 3 3 2 2 2 2 2 2 3 6 5 4 4 7 8 9 10 10 10 9 8 9 10 10 10 10 11 12 13 13 15 17 17 17 18 18 19
6 7 7 7 7 6 5 6 6 6 6 6 6 6 6 6 5 5 5 3 6 6 6 6 6 7 6 4 5 5 4 4 5 5 6 6 6 7 8 9 10 4 0 3 1 2 2 3 2 2 2 2 2 2 2 2 2 5 5 3 3 4 7 9 10 10 11 10 10 11 11 11 11 12 12 13 15 16 16 16 17 17 17 18 20
7 6 8 6 7 7 7 6 6 6 6 6 6 5 5 5 6 6 6 5 5 6 5 6 5 5 5 6 5 5 4 3 3 4 4 4 5 7 8 10 9 9 7 6 5 4 3 1 3 1 1 1 2 1 2 2 3 4 3 3 4 4 7 10 9 9 10 10 10 11 11 12 13 13 14 15 16 16 16 16 16 16 17 19 20
7 7 7 7 7 7 7 6 6 6 6 6 6 6 5 5 5 5 5 6 6 4 4 5 6 5 5 5 5 5 3 4 4 3 4 4 6 6 7 5 7 10 7 8 6 3 3 0 1 3 1 1 2 2 1 2 4 4 4 4 5 4 9 8 10 10 10 11 11 11 12 12 13 14 16 16 16 16 16 16 16 17 18 19 19
7 8 8 7 7 7 7 7 6 6 6 6 6 6 6 5 5 5 5 6 6 6 4 5 5 6 7 6 4 5 4 5 4 4 3 3 4 5 5 4 4 4 9 6 6 4 2 3 0 1 2 2 1 1 2 2 4 4 4 4 4 8 9 6 9 10 11 11 12 11 12 12 12 13 14 15 16 16 16 17 17 17 18 17 16
8 8 8 8 8 8 6 7 7 6 6 6 6 6 5 5 6 6 5 6 6 7 6 4 4 5 7 7 5 5 4 5 5 4 4 3 3 4 5 5 4 5 6 6 6 6 1 1 4 2 2 1 2 3 3 3 2 3 3 4 5 6 4 5 7 8 9 11 11 12 12 12 11 12 13 14 15 16 16 16 15 15 15 15 15
8 9 9 9 9 8 8 8 8 7 7 7 5 6 6 6 5 6 6 6 7 5 6 6 4 5 6 7 5 4 4 6 4 4 4 4 4 4 4 5 5 6 7 5 6 6 1 1 1 2 1 1 1 2 3 3 5 5 4 3 4 4 4 4 5 7 10 11 11 12 12 12 12 13 14 14 13 14 14 14 14 13 14 14 16
9 9 9 8 8 9 8 8 8 7 7 7 7 6 7 7 6 5 6 7 6 6 6 7 5 4 6 7 6 5 4 7 5 5 4 4 4 5 3 5 6 6 4 5 4 6 5 2 2 1 1 1 2 1 2 4 5 5 6 6 4 3 4 5 5 6 10 11 12 12 12 12 13 12 12 12 13 13 13 14 14 15 14 15 15
8 8 9 9 9 9 8 8 8 7 7 7 7 7 7 8 8 6 6 7 8 8 7 7 7 6 6 6 6 5 4 6 5 4 4 4 3 5 5 3 6 4 2 6 7 4 7 4 2 2 2 1 1 1 1 2 3 2 4 5 5 5 3 4 5 5 7 10 12 12 12 12 12 12 12 12 13 13 13 14 15 15 15 15 15
9 7 8 9 9 9 8 8 8 8 7 7 7 7 8 8 8 8 7 6 7 7 8 8 7 7 7 7 5 6 6 7 5 4 3 3 4 4 5 3 5 5 5 5 5 6 4 6 3 3 1 0 1 1 2 3 2 2 1 3 3 4 4 4 5 5 7 11 11 11 12 12 12 12 12 12 12 13 13 14 14 15 15 15 15
9 8 7 7 8 9 8 9 8 8 8 8 8 7 6 6 8 8 8 7 6 7 7 8 6 7 7 7 7 6 7 7 5 4 4 5 4 4 5 3 4 4 4 5 5 5 7 6 4 1 1 2 2 1 1 4 4 4 3 3 4 5 5 5 4 4 7 10 9 10 12 12 11 12 12 12 12 13 13 13 14 15 15 16 16
10 9 10 8 8 9 8 8 8 8 8 7 8 8 7 7 6 6 6 7 7 7 6 6 7 6 7 7 7 7 7 8 6 5 4 5 4 5 5 4 4 4 5 5 5 6 7 5 4 3 1 1 2 1 0 2 3 4 5 6 3 0 4 7 6 5 4 4 5 7 9 10 11 12 12 12 12 12 12 13 14 15 15 16 17
11 10 9 9 7 8 8 8 8 8 8 7 7 7 7 7 7 7 7 6 6 6 6 6 6 6 6 7 7 7 7 7 8 7 6 5 4 5 3 4 3 5 5 5 5 6 6 5 2 1 2 1 0 1 1 1 0 1 2 5 6 5 2 3 6 5 4 6 7 7 7 8 9 7 10 11 11 12 13 13 14 15 15 16 17
11 11 11 10 8 7 8 8 7 7 7 7 6 7 7 7 7 7 7 7 7 6 6 6 6 6 6 6 7 6 7 6 7 7 7 6 5 6 3 1 2 5 5 5 5 6 5 4 2 3 1 1 1 2 2 2 2 1 1 1 4 5 7 5 2 5 3 4 6 8 7 8 9 10 11 12 11 13 13 12 14 14 15 16 17
9 10 10 10 9 8 7 7 8 7 7 7 7 7 7 7 7 8 8 8 8 8 7 6 5 6 6 6 6 6 6 7 8 8 9 8 8 9 7 5 4 5 5 4 5 5 4 4 3 1 2 1 1 2 3 1 0 2 1 1 3 3 4 6 4 3 3 4 6 7 6 5 6 6 5 6 8 10 11 12 11 13 15 15 16
10 9 9 9 10 10 10 8 8 7 7 6 8 12 10 9 8 7 6 7 8 8 8 7 6 6 6 6 6 10 12 13 12 12 11 10 9 8 9 9 7 6 6 6 5 5 5 6 5 5 4 4 4 3 2 3 2 1 2 1 4 5 5 4 4 2 1 2 6 7 7 3 3 6 6 6 7 7 6 7 7 11 13 15 16
11 11 10 11 10 9 10 10 9 7 7 7 13 13 13 13 9 8 8 7 7 8 8 9 8 7 6 6 7 11 12 12 9 11 9 11 11 7 9 10 8 9 9 7 6 6 6 5 4 4 5 5 5 2 3 2 2 2 3 2 3 3 2 4 6 5 2 2 4 5 8 5 3 6 7 6 6 7 7 7 13 14 14 15 16
9 9 11 12 11 10 9 9 9 8 8 9 14 13 13 13 11 8 7 7 7 7 8 8 8 8 9 9 8 6 6 8 7 7 7 8 9 10 11 10 8 6 4 5 8 5 5 6 5 5 5 5 3 3 3 1 2 2 2 2 3 3 3 3 2 5 3 3 4 5 8 6 4 5 7 7 6 6 8 11 14 15 15 15 15
10 11 12 10 10 9 9 10 9 8 7 10 14 14 14 14 13 10 7 8 9 8 8 9 9 9 8 7 6 5 6 10 7 7 7 6 5 9 10 9 6 5 5 2 0 5 7 6 6 5 6 4 3 4 4 3 2 4 5 3 1 2 2 3 4 4 6 3 3 2 5 6 3 6 7 7 6 6 8 11 14 15 15 15 15
11 11 11 11 10 10 10 10 9 8 8 11 15 15 15 15 14 11 8 9 9 9 9 8 7 7 7 8 7 6 5 6 6 7 7 6 6 7 7 6 5 4 3 3 3 5 6 6 6 5 6 5 4 4 4 4 1 3 3 4 3 5 3 4 5 6 7 2 2 2 4 6 2 5 6 7 6 7 7 11 14 14 15 16 16
12 12 12 11 10 10 9 8 8 8 7 14 16 16 15 15 15 11 8 7 7 7 7 7 8 8 8 8 9 9 7 6 5 7 7 7 7 6 7 6 5 4 3 3 3 4 4 3 5 5 4 6 5 4 3 3 4 4 4 4 4 5 6 6 6 6 6 2 3 1 4 7 2 6 6 6 7 8 7 9 13 15 16 16 16
8 8 8 9 11 11 10 10 9 9 8 15 16 16 17 16 16 9 8 8 8 7 7 7 8 8 8 9 7 7 7 7 6 10 8 8 8 8 7 6 4 2 3 3 3 4 5 5 5 4 3 5 5 4 4 4 3 3 2 2 2 3 4 3 5 5 3 2 3 2 2 5 3 3 6 6 5 7 7 6 12 15 16 16 16
10 9 9 9 9 10 11 10 10 9 8 13 16 17 17 17 13 7 8 7 7 8 8 8 7 7 7 7 7 7 7 7 8 11 10 9 8 8 7 7 4 2 4 2 3 5 8 8 5 4 5 6 7 8 8 8 6 3 2 1 4 3 2 4 4 4 5 3 1 2 2 5 3 3 6 6 7 6 6 7 7 12 15 15 16
10 10 9 7 7 9 11 11 11 11 9 12 17 17 17 17 14 9 8 8 8 8 7 6 6 7 7 12 8 7 8 8 9 12 12 10 8 8 7 7 5 5 5 3 0 0 2 5 5 5 6 7 8 9 9 8 8 7 5 5 3 4 2 2 3 3 6 4 2 3 3 4 5 1 4 5 6 4 6 7 8 9 12 12 16
9 9 10 11 10 9 10 10 11 11 8 10 16 16 17 17 13 8 9 7 8 8 7 6 5 5 6 8 12 8 8 8 12 13 14 10 8 8 7 6 6 6 6 5 5 4 2 2 2 3 4 4 4 3 4 6 6 8 7 6 1 3 4 3 4 3 4 4 1 2 3 4 5 2 2 6 4 5 5 7 8 7 7 7 9
Wind_Direction
181 185 161 190 181 167 188 206 205 207 196 230 217 186 144 121 200 121 110 110 119 125 118 110 114 115 114 111 103 99 90 84 78 72 58 58 71 80 81 82 82 82 82 83 83 82 80 81 82 80 75 73 74 73 69 65 65 65 61 58 60 55 50 54 52 47 40 43 42 39 34 41 30 36 29 27 29 30 25 19 16 14 10 12 10
191 168 172 188 180 174 183 201 196 194 199 211 166 135 134 132 164 108 122 126 127 131 121 118 115 112 107 108 100 95 91 95 83 73 61 52 62 81 84 82 80 80 82 85 86 84 82 77 74 74 75 75 73 71 72 68 65 63 62 57 54 57 48 48 55 50 41 41 43 40 36 37 31 33 30 29 27 24 21 18 16 15 12 11 10
183 175 182 177 169 171 194 180 176 190 197 182 139 136 140 152 168 121 132 130 133 133 127 120 117 107 104 102 103 99 96 88 83 75 66 50 49 59 84 84 82 82 83 83 84 85 85 83 82 81 74 72 73 74 71 70 66 63 60 59 53 53 53 40 58 50 40 43 42 35 37 35 34 31 30 26 24 22 20 19 15 13 9 7 6
180 175 177 170 170 176 176 178 178 165 160 139 132 128 147 146 120 99 109 121 126 125 119 116 111 108 109 103 105 100 93 87 84 76 73 65 57 52 45 73 84 82 83 84 82 81 81 84 82 79 73 71 73 74 73 70 68 63 60 58 55 53 52 43 50 51 40 41 41 31 35 33 30 28 31 19 25 20 18 13 14 9 9 5 5
191 183 182 172 166 159 164 175 161 147 128 129 127 132 118 109 91 97 96 108 119 117 110 98 109 111 107 105 104 94 92 87 85 83 81 76 60 60 52 50 50 81 85 84 82 80 80 78 79 79 74 72 74 73 72 69 67 66 62 54 54 54 51 44 43 49 45 38 37 30 32 27 26 26 25 20 22 15 13 13 11 10 7 4 359
185 185 172 166 167 175 165 159 152 140 131 133 125 123 119 114 116 102 105 111 123 125 121 110 104 104 104 108 96 96 99 93 90 90 90 77 76 65 68 51 59 33 63 87 87 84 80 77 75 76 78 73 71 72 72 70 66 66 64 60 54 54 48 46 40 42 45 41 36 29 29 19 24 24 24 25 17 15 14 9 8 8 6 1 360
184 176 175 170 173 175 163 159 150 140 137 146 138 121 132 128 127 105 101 95 113 120 115 115 120 113 113 120 113 110 93 99 97 95 87 90 78 78 69 76 68 61 55 29 83 89 81 79 76 75 72 67 65 62 63 62 63 63 64 62 57 54 49 43 43 37 38 42 38 30 27 22 13 17 27 22 12 13 14 7 7 8 4 1 360
176 170 170 180 177 169 160 145 147 134 138 143 130 122 128 118 111 127 118 109 117 112 93 112 110 111 114 109 107 104 104 99 107 99 96 94 84 87 86 86 79 79 67 57 28 73 87 91 83 74 71 68 63 60 60 61 59 55 54 55 55 51 48 43 36 38 33 35 38 32 25 20 10 3 28 20 12 12 10 7 7 5 360 358 359
171 170 171 176 168 150 149 143 138 136 140 125 115 136 135 121 102 85 126 132 125 124 104 107 104 101 102 100 97 111 105 118 117 120 103 97 103 102 103 85 86 88 81 77 48 358 71 93 86 80 72 69 65 63 58 57 57 55 51 47 48 45 42 42 35 31 31 21 27 33 25 16 6 359 23 21 12 14 7 6 0 1 1 2 359
168 167 165 170 153 145 143 141 139 138 139 123 123 127 132 130 109 76 105 129 132 132 127 111 100 102 89 79 92 95 111 114 139 130 119 122 117 123 111 94 95 98 87 81 62 69 44 43 69 81 82 73 70 63 59 55 51 49 47 45 40 39 35 33 31 27 23 19 14 29 22 18 8 360 15 12 5 12 8 4 2 2 1 0 359
166 161 156 158 149 146 146 146 150 147 138 127 129 128 123 117 121 103 71 62 124 129 126 116 102 90 81 68 76 88 97 132 119 131 139 132 145 135 110 109 112 94 89 84 105 99 80 72 56 24 56 80 69 63 57 50 46 43 40 37 34 32 29 24 23 20 19 17 8 30 15 18 9 358 7 9 8 5 0 4 1 2 2 1 355
163 157 154 157 158 155 151 154 159 150 144 139 142 148 143 122 118 119 106 86 71 117 123 113 90 81 73 57 46 57 76 72 116 137 122 146 141 125 135 133 127 110 103 55 183 141 113 104 79 34 29 20 51 60 52 44 38 39 37 32 26 23 23 18 16 12 16 13 9 26 15 17 10 359 7 11 6 358 357 7 358 5 5 358 355
160 156 158 159 158 153 150 158 162 159 160 164 157 148 139 131 124 119 125 117 105 115 121 120 114 70 55 55 43 26 73 76 90 106 136 178 156 141 141 138 160 158 147 307 8 155 179 127 101 110 29 30 354 359 8 16 9 28 33 31 20 15 16 15 9 7 12 9 11 23 14 16 12 2 10 8 0 0 9 351 9 11 6 5 0
161 160 157 153 155 162 159 161 164 160 159 144 139 135 131 133 132 106 83 134 140 159 153 122 83 145 143 142 66 53 88 70 80 86 142 176 174 151 156 166 180 196 250 9 311 286 266 316 354 342 352 4 348 329 337 345 336 15 29 26 16 12 13 12 6 6 9 9 13 19 19 13 13 3 12 8 356 8 4 356 14 10 7 6 4
163 164 160 160 163 161 168 162 164 151 139 142 142 144 152 152 155 143 125 43 109 168 166 85 137 123 112 103 159 97 310 13 317 260 148 154 168 168 164 178 193 204 218 291 272 273 280 319 331 340 335 331 320 316 319 340 347 8 24 20 19 16 13 11 9 7 8 8 13 14 19 11 12 3 7 6 2 14 2 6 9 8 5 5 3
164 164 162 162 163 168 160 165 165 164 155 150 154 154 156 158 151 149 138 131 154 190 204 153 144 140 154 173 184 130 109 246 211 213 60 171 167 195 180 187 201 207 201 226 241 258 291 321 313 317 305 292 292 299 334 349 351 360 12 19 27 27 21 16 12 5 2 5 9 10 19 10 11 2 2 7 5 7 2 359 1 3 359 360 358
164 166 166 164 164 161 165 172 165 165 157 155 165 169 170 167 160 155 165 153 169 175 201 158 193 324 137 115 65 209 214 202 123 252 21 144 188 201 205 189 190 210 207 240 266 288 291 289 282 288 258 266 280 332 1 17 357 348 357 18 34 35 28 18 13 3 358 0 5 5 12 11 8 0 359 6 3 358 356 353 356 353 351 350 350
163 165 165 156 165 168 168 167 170 164 167 166 158 153 167 170 176 170 174 178 161 163 185 238 211 81 138 147 165 174 171 204 125 209 21 308 316 181 195 189 212 210 233 261 280 342 329 336 332 280 264 296 2 22 29 18 5 342 32 24 36 37 34 25 17 7 359 359 2 3 3 7 5 359 360 360 357 353 351 350 348 346 345 344 343
167 164 160 160 162 170 173 174 172 166 159 153 167 174 175 180 171 175 180 155 145 169 183 188 143 262 184 39 53 138 142 136 195 93 162 282 358 130 125 115 196 209 223 250 16 341 344 332 302 277 16 39 40 33 38 22 24 29 32 36 32 39 38 30 25 16 5 358 1 3 360 4 0 359 358 357 354 351 349 347 347 345 342 341 339
165 163 159 159 165 171 173 171 169 170 165 172 172 171 168 171 178 179 162 173 173 172 180 170 173 199 170 115 54 86 93 64 149 161 150 162 217 283 29 333 190 233 229 24 1 52 274 333 324 50 66 48 37 47 42 43 46 20 6 32 30 34 37 33 25 15 8 0 359 2 2 3 1 359 359 358 354 351 347 347 346 343 341 338 337
166 163 164 163 170 171 170 169 171 173 160 148 149 167 175 168 165 165 177 183 187 176 161 184 187 175 135 102 89 87 63 55 98 85 137 123 232 194 170 6 55 264 33 88 249 239 255 283 33 67 60 49 44 50 46 56 43 23 10 27 31 29 34 32 21 13 9 5 6 3 3 5 4 2 2 359 355 351 348 347 345 343 341 339 337
166 165 165 171 169 168 169 172 174 157 148 153 153 170 180 180 178 180 177 179 183 169 181 180 188 177 180 156 138 109 76 77 67 91 51 89 161 193 191 164 176 251 23 2 302 274 281 88 72 56 55 55 45 51 46 51 44 16 12 25 27 26 30 29 19 16 8 8 8 4 3 5 6 5 5 360 355 351 347 346 345 344 342 340 336
162 168 172 171 171 169 168 168 158 150 142 157 174 174 178 181 180 172 175 178 181 178 175 176 183 177 178 173 175 171 172 174 186 190 147 139 86 134 159 184 171 129 30 337 357 66 79 58 57 46 52 62 60 48 44 27 42 35 21 20 22 23 24 27 19 15 9 8 6 9 6 6 6 7 5 1 356 352 348 345 344 343 339 337 335
163 159 170 174 167 166 158 148 151 145 161 171 173 170 163 162 163 174 180 189 175 173 172 167 178 184 192 192 188 186 175 170 180 173 173 184 161 163 162 132 69 68 236 49 55 62 54 52 37 58 63 74 59 50 26 24 20 36 22 10 17 17 17 19 17 9 6 4 4 12 11 2 358 359 359 357 355 349 343 340 341 338 338 337 334
180 171 181 174 164 154 158 156 150 156 153 156 163 150 153 162 167 170 173 178 183 178 176 187 179 181 196 199 183 183 198 184 150 169 148 124 133 117 99 82 138 137 70 58 82 340 39 50 40 48 74 72 63 39 31 20 360 32 28 359 6 12 11 12 10 9 4 2 4 10 5 359 353 351 345 342 341 340 335 333 328 330 331 328 327
174 186 173 169 166 167 161 156 149 148 151 155 155 159 158 164 167 168 181 184 167 180 186 180 183 187 153 166 192 193 198 166 167 150 154 139 148 148 141 54 77 127 351 41 7 105 74 56 30 55 65 65 58 46 38 22 342 30 27 11 351 0 3 3 359 2 4 2 1 0 356 350 347 344 339 332 327 322 319 323 331 332 327 327 327
179 166 158 165 158 150 155 151 151 150 146 146 143 143 147 135 147 149 135 152 163 159 162 163 171 174 177 182 178 178 179 177 166 184 169 177 163 156 144 130 66 37 59 31 339 30 152 66 17 45 40 51 34 28 26 16 22 27 26 4 345 350 350 358 351 356 360 357 351 350 346 341 339 335 331 325 317 317 325 331 331 328 326 327 329
158 156 166 161 158 154 152 155 151 149 152 149 150 147 146 140 134 141 140 142 148 156 162 160 167 169 165 142 140 166 158 163 183 175 185 174 156 157 157 156 149 163 78 152 294 241 180 131 46 36 11 5 7 350 358 355 12 27 16 358 353 339 344 353 348 349 353 349 349 347 344 338 335 334 332 330 332 337 339 335 329 326 324 326 328
159 162 158 160 157 156 155 154 156 154 149 151 149 145 144 143 146 145 146 146 141 154 151 157 152 146 138 154 148 142 148 134 118 136 151 150 167 172 173 169 167 150 166 178 205 182 198 154 142 53 345 322 326 324 330 354 18 29 5 1 348 342 343 347 342 342 346 344 345 341 339 335 334 333 335 335 337 340 338 333 330 327 326 327 327
161 160 157 156 156 155 152 156 155 155 157 149 147 145 137 127 137 131 134 136 127 117 138 138 141 133 124 113 127 123 132 120 122 122 129 154 161 177 185 179 167 161 161 167 200 211 136 40 175 143 122 314 309 324 314 345 4 23 5 1 350 340 345 338 341 343 343 342 340 339 335 332 329 330 332 333 334 336 335 332 332 328 325 327 327
154 154 157 159 157 153 153 151 155 155 149 151 143 143 145 133 136 132 138 140 138 139 142 139 145 135 133 126 121 120 125 117 106 97 90 121 149 161 170 143 174 154 155 139 138 222 167 134 312 231 186 248 305 292 338 352 358 6 2 353 342 344 344 332 331 337 339 336 334 331 329 326 321 322 324 326 331 332 331 331 330 324 323 323 322
163 158 160 163 161 155 156 154 154 151 150 147 148 144 142 146 144 142 151 143 140 146 143 127 132 136 135 132 139 138 135 113 100 91 94 77 98 130 155 151 129 137 142 139 147 158 204 163 160 191 218 273 336 11 5 334 345 3 360 346 339 342 336 330 328 326 325 327 326 327 325 322 319 320 324 326 329 329 330 328 323 318 317 320 327
158 162 165 166 163 159 157 160 161 160 158 152 150 144 144 143 149 144 148 149 145 140 133 127 116 137 135 130 136 132 141 114 106 98 84 85 82 77 109 126 135 148 142 122 125 120 67 325 158 187 300 309 285 346 3 341 343 343 349 348 342 335 329 323 321 317 319 322 323 324 322 320 323 324 327 327 326 325 324 322 319 316 316 323 328
165 165 166 162 161 160 161 163 164 162 159 153 151 150 147 146 146 150 152 150 145 139 140 138 143 138 138 134 133 127 110 112 109 95 99 98 96 101 100 135 145 160 180 112 119 132 146 114 149 347 295 291 171 293 14 348 338 336 340 338 336 339 327 325 323 319 318 318 320 321 321 322 321 322 322 325 324 322 320 319 319 319 321 326 328
167 166 164 163 162 161 162 162 161 161 160 156 160 158 159 158 155 159 162 159 156 150 151 152 152 143 136 136 139 131 115 101 89 89 85 90 80 99 104 104 125 137 159 131 129 107 144 162 204 234 232 281 156 73 328 271 272 285 305 332 330 323 322 320 313 303 308 316 320 319 317 317 320 322 325 324 321 318 318 319 319 320 323 327 330
162 162 162 161 159 164 163 160 164 160 156 160 163 169 164 160 158 158 160 162 159 159 156 154 153 152 147 133 143 136 121 112 107 103 74 85 89 89 90 65 103 107 109 104 119 126 156 141 219 197 240 333 278 296 298 264 297 320 283 304 297 297 307 322 314 308 320 319 316 312 315 321 323 324 323 320 319 320 320 320 320 322 325 329 332
162 155 160 162 162 165 167 167 163 166 170 165 165 165 160 159 159 159 162 157 153 153 157 158 157 151 148 147 148 138 131 123 120 117 119 102 83 88 84 70 84 86 77 98 104 113 134 141 143 265 292 267 260 304 320 360 340 341 320 334 319 314 325 325 308 306 305 312 314 317 321 322 323 323 322 322 323 321 321 321 322 325 329 331 333
163 167 164 170 172 172 167 166 168 170 168 170 170 164 158 151 151 156 154 148 144 147 151 149 147 150 147 144 147 143 140 142 146 135 125 117 98 89 89 72 77 73 93 83 93 110 113 130 140 141 12 359 314 240 51 37 8 335 336 333 317 154 346 344 331 317 322 314 330 329 326 323 321 319 318 322 321 320 323 327 328 330 332 332 333
166 167 170 170 173 167 166 162 169 167 164 164 164 159 155 154 154 147 142 140 139 138 140 144 145 143 139 140 143 146 142 142 142 147 132 112 103 95 76 101 63 102 96 99 112 118 126 127 81 92 146 221 303 321 93 10 247 86 347 335 336 331 347 10 323 320 317 317 312 308 306 297 299 306 317 322 322 326 332 332 331 332 332 332 333
171 172 169 172 167 165 165 169 166 159 155 156 159 159 159 161 154 150 149 145 139 131 133 140 141 138 138 139 138 143 141 144 144 145 143 130 113 98 53 20 153 112 115 117 118 122 129 136 111 166 270 175 329 285 300 339 68 18 73 332 298 316 327 329 267 288 300 309 322 326 328 329 331 331 333 331 329 333 332 334 330 329 331 331 330
172 175 169 163 155 160 161 163 159 158 162 169 169 164 159 161 158 155 155 150 147 140 135 130 129 129 127 132 136 136 141 148 151 162 169 159 143 143 152 179 170 132 121 128 128 125 130 132 131 38 129 158 266 349 332 23 345 293 305 25 276 271 294 310 302 236 255 318 321 321 318 326 314 317 317 320 326 331 330 330 326 328 329 328 326
170 166 162 164 167 166 164 165 162 163 169 170 177 173 169 162 162 157 151 151 151 148 141 131 122 124 134 137 152 153 154 161 168 169 161 159 163 164 162 162 161 146 152 146 153 153 147 154 168 161 157 199 226 216 213 252 276 312 315 275 307 321 323 311 273 254 266 351 327 326 308 294 305 308 327 324 314 324 321 321 321 324 324 326 326
171 166 165 166 171 170 170 168 168 171 174 181 179 173 169 161 153 156 156 152 150 149 152 148 140 134 138 152 167 170 170 168 167 168 169 173 177 167 161 165 165 161 156 156 171 165 163 163 163 160 175 194 236 213 221 266 239 256 278 299 290 297 357 340 331 312 141 334 337 313 307 318 348 324 319 317 318 323 322 318 318 321 326 328 326
173 164 169 176 172 172 169 167 171 175 179 180 172 171 166 163 160 155 154 150 155 161 161 154 151 153 165 174 183 167 157 157 161 166 177 189 171 161 161 164 172 191 221 175 159 171 168 153 170 194 168 192 237 196 248 210 261 275 234 265 257 288 311 310 268 290 270 56 345 321 300 302 322 313 322 320 321 319 313 312 316 325 328 328 326
166 172 177 171 173 168 166 169 177 178 175 170 169 168 167 167 161 150 156 159 162 170 167 165 168 170 165 158 153 149 164 166 161 165 167 168 159 157 154 150 161 185 202 201 168 164 153 147 168 188 198 178 185 235 210 209 132 315 321 307 230 233 245 266 260 281 299 29 335 286 283 301 337 329 318 313 326 318 315 316 320 324 327 329 328
174 177 170 173 168 168 173 176 175 173 171 168 168 169 169 167 162 157 163 169 173 171 171 171 167 162 158 157 158 166 177 164 159 162 159 153 148 141 143 151 168 181 188 180 137 146 170 163 161 188 217 172 192 211 214 155 170 273 289 279 290 300 280 263 279 268 273 330 265 299 289 310 8 327 318 315 322 315 308 310 314 323 331 332 330
175 177 173 172 173 171 172 170 166 171 181 167 169 169 169 168 168 164 166 168 165 165 163 164 165 169 164 166 173 173 172 172 165 166 155 157 149 150 152 165 179 200 231 218 203 173 188 189 181 201 182 193 217 203 174 190 212 220 228 260 288 284 293 291 263 236 265 235 189 183 298 302 18 331 309 310 318 310 303 310 319 328 333 333 330
177 169 169 170 169 169 170 169 169 176 177 169 170 170 170 172 170 167 161 161 162 162 168 173 172 171 171 173 172 166 170 175 180 170 169 152 153 159 165 166 193 237 250 237 250 247 227 202 202 207 209 206 212 208 197 195 215 228 257 286 286 270 282 287 311 316 300 198 204 194 273 293 321 308 300 308 312 309 310 309 325 328 331 331 329
169 171 172 176 176 169 169 173 175 176 171 173 171 172 173 171 167 162 156 156 162 171 178 178 172 170 174 173 173 170 167 187 178 175 169 160 159 169 168 169 181 202 251 266 251 244 238 231 217 205 209 223 237 243 238 231 231 196 144 319 254 182 223 326 306 325 297 329 256 195 199 283 308 337 300 309 316 296 300 309 315 326 329 328 329
177 179 160 155 177 178 172 176 180 174 176 173 174 175 172 170 169 161 162 160 174 178 165 175 170 168 176 179 173 167 173 189 176 175 170 163 168 171 166 167 182 209 239 230 2 324 200 206 219 226 229 237 244 255 255 242 223 193 171 220 209 154 211 198 268 264 293 297 244 164 282 272 306 311 304 299 303 270 307 316 324 321 328 330 331
164 151 162 175 180 179 182 182 174 170 163 170 175 172 173 174 171 162 164 169 171 184 173 171 169 167 178 187 185 178 184 186 175 176 174 174 170 171 167 164 188 206 222 185 179 169 153 154 240 232 227 219 233 249 264 244 214 197 207 230 108 209 250 235 236 295 308 291 257 190 320 292 324 323 352 329 327 297 292 321 322 316 322 326 328